Meridian NAS, MS

1:15 PM CDT on June 25, 2017 (GMT -0500)
Meridian Naval Air Station

Weather History for KNMM - January, 2013

Change the Weather History Date:

Sunday, January 20, 2013

  Actual Average Record
Temperature  
Mean Temperature 47 °F -  
Max Temperature 64 °F 55 °F 77 °F (2017)
Min Temperature 30 °F 35 °F 19 °F (2008)
Degree Days  
Heating Degree Days 18    
Moisture  
Dew Point 36 °F    
Average Humidity 71    
Maximum Humidity 96    
Minimum Humidity 33    
Precipitation  
Precipitation 0.00 in - - ()
Sea Level Pressure  
Sea Level Pressure 30.24 in    
Wind  
Wind Speed 0 mph (NW)    
Max Wind Speed 6 mph    
Max Gust Speed -    
Visibility 10 miles    
Events      
Averages and records for this station are not official NWS values.
T = Trace of Precipitation, MM = Missing Value Source: NWS Daily Summary

Daily Weather History Graph

Daily Weather History Graph

Search for Another Location

Airport or City:

Trip Planner

Search our weather history database for the weather conditions in past years. The results will help you decide how hot, cold, wet, or windy it might be!

Date:

Astronomy

Jan. 20, 2013 Rise Set
Actual Time 6:54 AM CST 5:16 PM CST
Civil Twilight 6:28 AM CST 5:42 PM CST
Nautical Twilight 5:58 AM CST 6:12 PM CST
Astronomical Twilight 5:29 AM CST 6:42 PM CST
Moon 12:16 PM CST (1/20) 1:28 AM CST (1/20)
Length of Visible Light 11h 14m
Length of Day
10h 21m
Waxing Gibbous, 66% of the Moon is Illuminated
Jan 20
Waxing Gibbous
Jan 26
Full
Feb 3
Last Quarter
Feb 10
New
Feb 17
First Quarter

Hourly Weather History & Observations

Time (CST) Temp. Dew Point Humidity Pressure Visibility Wind Dir Wind Speed Gust Speed Precip Events Conditions
12:56 AM 37.0 °F 35.1 °F 93% 30.28 in 10.0 mi Calm Calm - N/A   Clear
1:56 AM 36.0 °F 34.0 °F 93% 30.30 in 10.0 mi Calm Calm - N/A   Clear
2:56 AM 34.0 °F 32.0 °F 92% 30.30 in 10.0 mi Calm Calm - N/A   Clear
3:56 AM 33.1 °F 32.0 °F 96% 30.30 in 9.0 mi Calm Calm - N/A   Clear
4:56 AM 32.0 °F 30.0 °F 92% 30.29 in 10.0 mi Calm Calm - N/A   Clear
5:56 AM 32.0 °F 30.0 °F 92% 30.29 in 10.0 mi Calm Calm - N/A   Clear
6:56 AM 30.9 °F 28.9 °F 92% 30.30 in 7.0 mi Calm Calm - N/A   Clear
7:56 AM 35.1 °F 34.0 °F 96% 30.31 in 9.0 mi Calm Calm - N/A   Clear
8:56 AM 45.0 °F 41.0 °F 86% 30.32 in 10.0 mi Calm Calm - N/A   Clear
9:56 AM 53.1 °F 41.0 °F 64% 30.32 in 10.0 mi Calm Calm - N/A   Clear
10:56 AM 57.0 °F 37.0 °F 47% 30.29 in 10.0 mi Calm Calm - N/A   Clear
11:56 AM 61.0 °F 34.0 °F 36% 30.25 in 10.0 mi Calm Calm - N/A   Clear
12:56 PM 63.0 °F 36.0 °F 37% 30.22 in 10.0 mi North 4.6 mph - N/A   Clear
1:56 PM 64.0 °F 35.1 °F 34% 30.20 in 10.0 mi Calm Calm - N/A   Clear
2:11 PM 62.6 °F 35.6 °F 37% 30.16 in 10.0 mi West 3.5 mph - N/A   Clear
2:56 PM 64.0 °F 35.1 °F 34% 30.19 in 10.0 mi Calm Calm - N/A   Clear
3:56 PM 64.0 °F 34.0 °F 33% 30.18 in 10.0 mi WNW 5.8 mph - N/A   Clear
4:56 PM 57.9 °F 37.9 °F 47% 30.19 in 10.0 mi Calm Calm - N/A   Clear
5:56 PM 54.0 °F 39.0 °F 57% 30.19 in 10.0 mi Calm Calm - N/A   Clear
6:56 PM 48.0 °F 39.9 °F 74% 30.19 in 10.0 mi Calm Calm - N/A   Clear
7:56 PM 46.0 °F 39.9 °F 79% 30.20 in 10.0 mi Calm Calm - N/A   Clear
8:56 PM 41.0 °F 39.0 °F 93% 30.21 in 10.0 mi Calm Calm - N/A   Clear
9:56 PM 39.9 °F 37.9 °F 93% 30.21 in 10.0 mi Calm Calm - N/A   Clear
10:56 PM 37.9 °F 36.0 °F 93% 30.21 in 10.0 mi Calm Calm - N/A   Clear
11:56 PM 37.9 °F 35.1 °F 89% 30.19 in 10.0 mi Calm Calm - N/A   Clear